Change the Weather History Date:

Sunday, September 1, 2013

  Actual Average Record
Temperature  
Mean Temperature 58 °F -  
Max Temperature 66 °F 72 °F 89 °F (1978)
Min Temperature 51 °F 52 °F 40 °F (1981)
Degree Days  
Heating Degree Days 6    
Growing Degree Days 8 (Base 50)    
Moisture  
Dew Point 49 °F    
Average Humidity 71    
Maximum Humidity 94    
Minimum Humidity 49    
Precipitation  
Precipitation 0.00 in - - ()
Sea Level Pressure  
Sea Level Pressure 29.97 in    
Wind  
Wind Speed 13 mph (NNW)    
Max Wind Speed 20 mph    
Max Gust Speed 24 mph    
Visibility 10 miles    
Events      
Averages and records for this station are not official NWS values.
T = Trace of Precipitation, MM = Missing Value Source: NWS Daily Summary

Daily Weather History Graph

Daily Weather History Graph

Search for Another Location

Airport or City:

Trip Planner

Search our weather history database for the weather conditions in past years. The results will help you decide how hot, cold, wet, or windy it might be!

Date:

Astronomy

Sep. 01, 2013 Rise Set
Actual Time 6:43 AM CDT 8:05 PM CDT
Civil Twilight 6:10 AM CDT 8:37 PM CDT
Nautical Twilight 5:31 AM CDT 9:16 PM CDT
Astronomical Twilight 4:49 AM CDT 9:58 PM CDT
Moon 2:55 AM CDT (9/1) 5:52 PM CDT (9/1)
Length of Visible Light 14h 26m
Length of Day
13h 22m
Waning Crescent, 13% of the Moon is Illuminated
Sep 1
Waning Crescent
Sep 5
New
Sep 12
First Quarter
Sep 19
Full
Sep 26
Last Quarter

Hourly Weather History & Observations

Time (CDT) Temp. Dew Point Humidity Pressure Visibility Wind Dir Wind Speed Gust Speed Precip Events Conditions
12:15 AM 64.4 °F 59.0 °F 83% 29.80 in 10.0 mi WNW 13.8 mph 19.6 mph N/A   Overcast
12:35 AM 64.4 °F 59.0 °F 83% 29.80 in 10.0 mi WNW 15.0 mph 19.6 mph N/A   Mostly Cloudy
12:55 AM 64.4 °F 59.0 °F 83% 29.80 in 10.0 mi WNW 11.5 mph - N/A   Mostly Cloudy
1:15 AM 64.4 °F 59.0 °F 83% 29.80 in 10.0 mi WNW 11.5 mph - N/A   Mostly Cloudy
1:35 AM 64.4 °F 57.2 °F 77% 29.82 in 10.0 mi NW 17.3 mph - N/A   Overcast
1:55 AM 62.6 °F 55.4 °F 77% 29.83 in 10.0 mi NW 17.3 mph - N/A   Overcast
2:15 AM 60.8 °F 55.4 °F 82% 29.83 in 10.0 mi NW 17.3 mph - N/A   Mostly Cloudy
2:35 AM 60.8 °F 55.4 °F 82% 29.83 in 10.0 mi NW 16.1 mph - N/A   Overcast
2:55 AM 60.8 °F 55.4 °F 82% 29.84 in 10.0 mi NW 17.3 mph - N/A   Overcast
3:15 AM 60.8 °F 53.6 °F 77% 29.84 in 10.0 mi NW 15.0 mph - N/A   Overcast
3:35 AM 60.8 °F 53.6 °F 77% 29.85 in 10.0 mi NNW 12.7 mph - N/A   Overcast
3:55 AM 59.0 °F 53.6 °F 82% 29.85 in 10.0 mi NNW 12.7 mph - N/A   Overcast
4:15 AM 59.0 °F 53.6 °F 82% 29.86 in 6.0 mi NW 13.8 mph - N/A   Overcast
4:35 AM 57.2 °F 53.6 °F 88% 29.86 in 5.0 mi NW 16.1 mph - N/A   Overcast
4:55 AM 57.2 °F 53.6 °F 88% 29.87 in 10.0 mi NW 15.0 mph - N/A   Overcast
5:15 AM 57.2 °F 53.6 °F 88% 29.87 in 10.0 mi NW 12.7 mph - N/A   Overcast
5:35 AM 57.2 °F 53.6 °F 88% 29.88 in 10.0 mi NW 13.8 mph 21.9 mph N/A   Overcast
5:55 AM 57.2 °F 51.8 °F 82% 29.88 in 10.0 mi NW 12.7 mph 18.4 mph N/A   Overcast
6:15 AM 57.2 °F 51.8 °F 82% 29.89 in 10.0 mi NW 13.8 mph 21.9 mph N/A   Overcast
6:35 AM 55.4 °F 53.6 °F 94% 29.90 in 4.0 mi NW 12.7 mph - N/A   Overcast
6:55 AM 55.4 °F 53.6 °F 94% 29.90 in 1.2 mi NNW 15.0 mph - N/A   Overcast
7:15 AM 55.4 °F 51.8 °F 88% 29.91 in 10.0 mi NNW 13.8 mph - N/A   Overcast
7:35 AM 55.4 °F 50.0 °F 82% 29.91 in 10.0 mi NNW 15.0 mph 20.7 mph N/A   Overcast
7:55 AM 53.6 °F 48.2 °F 82% 29.92 in 10.0 mi NNW 19.6 mph - N/A   Mostly Cloudy
8:15 AM 53.6 °F 48.2 °F 82% 29.93 in 10.0 mi NNW 15.0 mph - N/A   Overcast
8:35 AM 53.6 °F 48.2 °F 82% 29.94 in 9.0 mi North 17.3 mph 21.9 mph N/A   Overcast
8:55 AM 55.4 °F 50.0 °F 82% 29.95 in 10.0 mi NNW 16.1 mph - N/A   Overcast
9:15 AM 55.4 °F 48.2 °F 77% 29.95 in 10.0 mi North 18.4 mph 24.2 mph N/A   Overcast
9:35 AM 55.4 °F 48.2 °F 77% 29.97 in 10.0 mi North 17.3 mph 23.0 mph N/A   Overcast
9:55 AM 55.4 °F 48.2 °F 77% 29.98 in 10.0 mi NNW 17.3 mph - N/A   Overcast
10:15 AM 55.4 °F 48.2 °F 77% 29.98 in 10.0 mi NNW 15.0 mph - N/A   Overcast
10:35 AM 57.2 °F 48.2 °F 72% 29.98 in 10.0 mi NW 17.3 mph - N/A   Overcast
10:55 AM 55.4 °F 50.0 °F 82% 29.99 in 10.0 mi NW 15.0 mph - N/A   Overcast
11:15 AM 57.2 °F 48.2 °F 72% 29.99 in 10.0 mi NNW 15.0 mph - N/A   Overcast
11:35 AM 57.2 °F 48.2 °F 72% 30.00 in 10.0 mi NW 16.1 mph - N/A   Overcast
11:55 AM 59.0 °F 48.2 °F 67% 30.00 in 10.0 mi NNW 16.1 mph 21.9 mph N/A   Overcast
12:15 PM 57.2 °F 48.2 °F 72% 30.00 in 10.0 mi NNW 16.1 mph - N/A   Overcast
12:35 PM 59.0 °F 46.4 °F 63% 30.01 in 10.0 mi North 15.0 mph - N/A   Overcast
12:55 PM 59.0 °F 48.2 °F 67% 30.01 in 10.0 mi NNW 15.0 mph - N/A   Overcast
1:15 PM 60.8 °F 48.2 °F 63% 30.02 in 10.0 mi North 11.5 mph 19.6 mph N/A   Mostly Cloudy
1:35 PM 62.6 °F 48.2 °F 59% 30.01 in 10.0 mi NNW 13.8 mph 18.4 mph N/A   Scattered Clouds
1:55 PM 64.4 °F 48.2 °F 56% 30.01 in 10.0 mi NNW 16.1 mph 21.9 mph N/A   Partly Cloudy
2:15 PM 64.4 °F 46.4 °F 52% 30.01 in 10.0 mi NNW 13.8 mph - N/A   Scattered Clouds
2:35 PM 66.2 °F 48.2 °F 52% 30.01 in 10.0 mi North 13.8 mph 18.4 mph N/A   Scattered Clouds
2:55 PM 64.4 °F 46.4 °F 52% 30.02 in 10.0 mi NNW 15.0 mph 20.7 mph N/A   Scattered Clouds
3:15 PM 64.4 °F 46.4 °F 52% 30.01 in 10.0 mi North 12.7 mph 20.7 mph N/A   Scattered Clouds
3:35 PM 66.2 °F 46.4 °F 49% 30.01 in 10.0 mi North 15.0 mph 18.4 mph N/A   Partly Cloudy
3:55 PM 66.2 °F 46.4 °F 49% 30.02 in 10.0 mi NNW 13.8 mph 19.6 mph N/A   Partly Cloudy
4:15 PM 66.2 °F 46.4 °F 49% 30.01 in 10.0 mi North 17.3 mph 20.7 mph N/A   Scattered Clouds
4:35 PM 66.2 °F 46.4 °F 49% 30.02 in 10.0 mi NNW 11.5 mph 18.4 mph N/A   Partly Cloudy
4:55 PM 64.4 °F 46.4 °F 52% 30.02 in 10.0 mi North 11.5 mph - N/A   Mostly Cloudy
5:15 PM 64.4 °F 46.4 °F 52% 30.02 in 10.0 mi NNE 9.2 mph - N/A   Scattered Clouds
5:35 PM 64.4 °F 46.4 °F 52% 30.03 in 10.0 mi NNE 13.8 mph 17.3 mph N/A   Partly Cloudy
5:55 PM 64.4 °F 46.4 °F 52% 30.02 in 10.0 mi NNE 12.7 mph 17.3 mph N/A   Clear
6:15 PM 64.4 °F 48.2 °F 56% 30.03 in 10.0 mi NNE 13.8 mph - N/A   Clear
6:35 PM 62.6 °F 46.4 °F 55% 30.04 in 10.0 mi North 11.5 mph 16.1 mph N/A   Clear
6:55 PM 62.6 °F 46.4 °F 55% 30.04 in 10.0 mi North 10.4 mph - N/A   Clear
7:15 PM 60.8 °F 46.4 °F 59% 30.04 in 10.0 mi NNE 9.2 mph - N/A   Clear
7:35 PM 60.8 °F 46.4 °F 59% 30.04 in 10.0 mi NNE 6.9 mph - N/A   Clear
7:55 PM 59.0 °F 46.4 °F 63% 30.04 in 10.0 mi NE 5.8 mph - N/A   Clear
8:15 PM 57.2 °F 46.4 °F 67% 30.04 in 10.0 mi NE 5.8 mph - N/A   Clear
8:35 PM 55.4 °F 44.6 °F 67% 30.05 in 10.0 mi ENE 3.5 mph - N/A   Clear
8:55 PM 55.4 °F 44.6 °F 67% 30.06 in 10.0 mi Calm Calm - N/A   Clear
9:15 PM 53.6 °F 44.6 °F 72% 30.06 in 10.0 mi Calm Calm - N/A   Clear
9:35 PM 53.6 °F 44.6 °F 72% 30.07 in 10.0 mi NNE 3.5 mph - N/A   Clear
9:55 PM 53.6 °F 44.6 °F 72% 30.07 in 10.0 mi NNE 3.5 mph - N/A   Clear
10:15 PM 53.6 °F 44.6 °F 72% 30.07 in 10.0 mi NE 4.6 mph - N/A   Clear
10:35 PM 53.6 °F 46.4 °F 77% 30.07 in 10.0 mi NNE 3.5 mph - N/A   Clear
10:55 PM 51.8 °F 44.6 °F 76% 30.08 in 10.0 mi North 3.5 mph - N/A   Clear
11:15 PM 51.8 °F 44.6 °F 76% 30.08 in 10.0 mi North 3.5 mph - N/A   Clear
11:35 PM 51.8 °F 44.6 °F 76% 30.08 in 10.0 mi North 3.5 mph - N/A   Clear
11:55 PM 51.8 °F 44.6 °F 76% 30.08 in 10.0 mi North 4.6 mph - N/A   Clear